This is the latest recevied weather packets stored in our database for station/object KB1JL-13. If no packets are shown the sender has not sent any weather packets the latest 10 day(s).
| Time | Temp. | Humidity | Pressure | Rain* | Wind** | Luminosity | Snow |
|---|---|---|---|---|---|---|---|
| 1788533311 | 25.56° C | 73% | 1023 hPa | 0 mm | - | 555 W/m² | - |
| 1788533006 | 25.56° C | 74% | 1023 hPa | 0 mm | - | 556 W/m² | - |
| 1788532701 | 25.56° C | 73% | 1023 hPa | 0 mm | - | 544 W/m² | - |
| 1788532398 | 25° C | 75% | 1023.4 hPa | 0 mm | - | 525 W/m² | - |
| 1788532094 | 25° C | 77% | 1023.4 hPa | 0 mm | - | 529 W/m² | - |
| 1788531790 | 25° C | 80% | 1023 hPa | 0 mm | - | 442 W/m² | - |
| 1788531484 | 25° C | 79% | 1023.4 hPa | 0 mm | - | 491 W/m² | - |
| 1788531179 | 25.56° C | 79% | 1023 hPa | 0 mm | - | 97 W/m² | - |
| 1788530875 | 25.56° C | 82% | 1023 hPa | 0 mm | - | 457 W/m² | - |
| 1788530570 | 25° C | 83% | 1023 hPa | 0 mm | - | 439 W/m² | - |
| 1788530269 | 25° C | 88% | 1023 hPa | 0 mm | - | 430 W/m² | - |
| 1788529965 | 24.44° C | 90% | 1023 hPa | 0 mm | - | 152 W/m² | - |
| 1788529661 | 24.44° C | 89% | 1023.4 hPa | 0 mm | - | 58 W/m² | - |
| 1788529360 | 23.89° C | 90% | 1023 hPa | 0 mm | - | 65 W/m² | - |
| 1788529055 | 23.89° C | 89% | 1023 hPa | 0 mm | - | 56 W/m² | - |
| 1788528751 | 23.89° C | 91% | 1023.4 hPa | 0 mm | - | 55 W/m² | - |
| 1788528450 | 23.89° C | 91% | 1023 hPa | 0 mm | - | 57 W/m² | - |
| 1788528146 | 23.33° C | 91% | 1023 hPa | 0 mm | - | 57 W/m² | - |
| 1788527845 | 23.33° C | 92% | 1023.4 hPa | 0 mm | - | 57 W/m² | - |
| 1788527541 | 22.78° C | 93% | 1023 hPa | 0 mm | - | 57 W/m² | - |
| 1788527241 | 22.78° C | 95% | 1023.4 hPa | 0 mm | - | 61 W/m² | - |
| 1788526940 | 22.78° C | 96% | 1023.4 hPa | 0 mm | - | 57 W/m² | - |
| 1788526636 | 22.78° C | 96% | 1023 hPa | 0 mm | - | 55 W/m² | - |
| 1788526362 | 22.22° C | 97% | 1023 hPa | 0 mm | - | 54 W/m² | - |
| 1788526026 | 22.22° C | 99% | 1023 hPa | 0 mm | - | 69 W/m² | - |
* Rain latest hour (hover to see other rain measurements)
** Current wind speed in m/s (hover to see current wind gust speed)